sat.trackr.live / text

‹ back to catalog

STARLINK-36249

NORAD 68532 · 2026-068AA

PAYLOAD ACTIVE UNKNOWN

§ Identity

Operator
Country
US
Launch date
2026-03-30
Launch site
AFETR
Launch vehicle
Mass (kg)
RCS (m²)

Purposes: comms

External: N2YO · Heavens-Above · Gunter

§ Orbital elements

Epoch: 2026-05-25T03:14:40.350336Z

Period
93.85 min
Inclination
53.1585°
Eccentricity
0.0001064
Mean motion
15.34410839 rev/d
Perigee alt
461.9 km
Apogee alt
463.4 km
Semi-major
6,840.8 km
B*
7.6159e-4
RAAN
133.1548°
Arg perigee
91.5360°
Mean anomaly
268.5764°
Rev number
866

§ Raw data

STARLINK-362491 68532U 26068AA  26145.13518924  .00025451  00000+0  76159-3 0  99942 68532  53.1585 133.1548 0001064  91.5360 268.5764 15.34410839  8669

JSON: /api/v1/satellites/68532 · /tle

For live sub-satellite position, see the globe view (requires WebGL).

§ Visibility from observer

Set your observer location to see the next 7 days of passes ≥ 10°. The values pass through the URL so the page stays shareable.

No JS? Fill the form by hand. The geolocation button needs JavaScript.